Location: Poughquag
(41.6090°N, 73.6820°W)
Time: 23:33:09
(UTC-05:00)

SR - Visible Passes

Search period start: 28 November 2023 00:00
Search period end: 08 December 2023 00:00
Orbit: 571 x 872 km, 66.7° (Epoch: 28 November)

Date Brightness Start Highest point End Pass type
(mag) Time Alt. Az. Time Alt. Az. Time Alt. Az.
03 Dec ? 18:37:59 10° N 18:38:36 12° N 18:38:36 12° N visible
04 Dec ? 19:27:17 10° NNW 19:27:56 13° NNW 19:27:56 13° NNW visible
05 Dec ? 18:36:13 10° N 18:38:01 16° N 18:38:01 16° N visible
06 Dec ? 17:45:36 10° N 17:48:11 13° NNE 17:48:11 13° NNE visible
06 Dec ? 19:25:57 10° NNW 19:27:29 18° NNW 19:27:29 18° NNW visible
07 Dec ? 18:34:41 10° NNW 18:37:45 25° NNE 18:37:45 25° NNE visible
07 Dec ? 20:16:34 10° NW 20:17:04 12° NW 20:17:04 12° NW visible
